DLH4ER EDDM-HECA

Flight info

Callsign DLH4ER
Flight time N/A
Altitude 33000
Route VAVOR3S/26L VAVOR M867 RADIZ DCT NIPEL/N0482F410 DCT ABISO DCT NEMEK DCT AKIKA DCT MAVAR DCT BITLA DCT KPC UN139 KUMBI L612 BLT A16 CVO
Aircraft A359/H-SDE2E3GHIJ3J4J5LM1ORWXY/LB1D1

Departure

Time N/A
Airport Munich Airport (EDDM)

Arrival

Time 2026-05-05 18:32
Airport Cairo International Airport (HECA)
Time Latitude Longitude Altitude Speed Heading
2026-05-05 17:57 33.02378 29.54234 32959 ft 517 kts 141°
2026-05-05 17:58 32.96681 29.59555 33091 ft 533 kts 143°
2026-05-05 17:58 32.91040 29.65430 33083 ft 540 kts 140°
2026-05-05 17:59 32.85507 29.71394 32245 ft 535 kts 140°
2026-05-05 17:59 32.82740 29.74365 31523 ft 531 kts 140°
2026-05-05 17:59 32.80005 29.77289 30724 ft 531 kts 141°
2026-05-05 17:59 32.77223 29.80246 29394 ft 541 kts 141°
2026-05-05 18:00 32.74413 29.83224 28504 ft 541 kts 141°
2026-05-05 18:00 32.71620 29.86181 27889 ft 534 kts 141°
2026-05-05 18:00 32.68859 29.89103 27235 ft 529 kts 141°
2026-05-05 18:00 32.66128 29.91989 26558 ft 524 kts 141°
2026-05-05 18:01 32.64427 29.93785 26279 ft 521 kts 141°
2026-05-05 18:01 32.62879 29.95418 26153 ft 522 kts 141°
2026-05-05 18:01 32.61077 29.97316 26094 ft 522 kts 141°
2026-05-05 18:01 32.58363 30.00173 26084 ft 522 kts 141°
2026-05-05 18:02 32.55652 30.03026 26087 ft 521 kts 141°
2026-05-05 18:02 32.52941 30.05877 26085 ft 521 kts 141°
2026-05-05 18:02 32.50234 30.08722 26085 ft 521 kts 141°
2026-05-05 18:02 32.47528 30.11570 26092 ft 521 kts 141°
2026-05-05 18:03 32.44843 30.14443 26086 ft 521 kts 141°
2026-05-05 18:03 32.42665 30.16795 26088 ft 521 kts 141°
2026-05-05 18:04 32.40620 30.19009 26089 ft 521 kts 141°
2026-05-05 18:04 32.37949 30.21900 26090 ft 520 kts 141°
2026-05-05 18:05 32.35238 30.24829 26087 ft 520 kts 141°
2026-05-05 18:05 32.32604 30.27668 26078 ft 521 kts 141°
2026-05-05 18:05 32.29919 30.30554 26086 ft 521 kts 141°
2026-05-05 18:05 32.27239 30.33430 26089 ft 521 kts 141°
2026-05-05 18:06 32.24554 30.36307 26088 ft 521 kts 141°
2026-05-05 18:06 32.22737 30.38252 26088 ft 521 kts 141°
2026-05-05 18:06 32.19182 30.42057 26088 ft 521 kts 141°
2026-05-05 18:06 32.16499 30.44924 26089 ft 521 kts 142°
2026-05-05 18:07 32.13814 30.47792 26090 ft 520 kts 142°
2026-05-05 18:07 32.11124 30.50663 26089 ft 520 kts 142°
2026-05-05 18:07 32.08441 30.53524 26089 ft 520 kts 142°
2026-05-05 18:07 32.05750 30.56391 26088 ft 520 kts 142°
2026-05-05 18:08 32.03064 30.59250 26088 ft 520 kts 142°
2026-05-05 18:08 32.00381 30.62105 26090 ft 520 kts 142°
2026-05-05 18:08 31.97691 30.64964 26088 ft 520 kts 142°
2026-05-05 18:08 31.95001 30.67821 26089 ft 520 kts 142°
2026-05-05 18:09 31.92311 30.70675 26088 ft 520 kts 142°
2026-05-05 18:09 31.89616 30.73533 26092 ft 520 kts 142°
2026-05-05 18:09 31.86927 30.76382 26090 ft 520 kts 142°
2026-05-05 18:09 31.84238 30.79226 26063 ft 521 kts 141°
2026-05-05 18:10 31.81539 30.82080 26077 ft 520 kts 142°
2026-05-05 18:10 31.78853 30.84918 26080 ft 520 kts 142°
2026-05-05 18:10 31.76162 30.87760 26083 ft 520 kts 142°
2026-05-05 18:10 31.73502 30.90567 26082 ft 520 kts 142°
2026-05-05 18:11 31.70809 30.93408 26083 ft 521 kts 142°
2026-05-05 18:11 31.68112 30.96250 26068 ft 520 kts 142°
2026-05-05 18:11 31.65419 30.99085 26079 ft 520 kts 142°
2026-05-05 18:11 31.62731 31.01912 26081 ft 519 kts 142°
2026-05-05 18:12 31.60044 31.04736 26080 ft 519 kts 142°
2026-05-05 18:12 31.57353 31.07562 26080 ft 519 kts 142°
2026-05-05 18:12 31.54586 31.10268 26078 ft 514 kts 150°
2026-05-05 18:12 31.51452 31.12170 26082 ft 501 kts 166°
2026-05-05 18:13 31.48122 31.13243 26080 ft 494 kts 174°
2026-05-05 18:13 31.44758 31.14008 26053 ft 493 kts 171°
2026-05-05 18:13 31.41358 31.14640 26062 ft 494 kts 178°
2026-05-05 18:13 31.37960 31.15213 26077 ft 491 kts 178°
2026-05-05 18:14 31.34584 31.15778 26083 ft 490 kts 178°
2026-05-05 18:14 31.31207 31.16357 26084 ft 491 kts 178°
2026-05-05 18:14 31.27831 31.16957 26084 ft 491 kts 178°
2026-05-05 18:14 31.24498 31.17565 26084 ft 491 kts 177°
2026-05-05 18:15 31.21083 31.18201 26083 ft 491 kts 177°
2026-05-05 18:15 31.17754 31.18825 26083 ft 491 kts 177°
2026-05-05 18:15 31.14375 31.19456 26061 ft 491 kts 177°
2026-05-05 18:15 31.11002 31.20084 26080 ft 492 kts 177°
2026-05-05 18:16 31.07622 31.20713 26082 ft 492 kts 177°
2026-05-05 18:16 31.04238 31.21342 26086 ft 492 kts 177°
2026-05-05 18:16 31.00872 31.21969 25916 ft 486 kts 177°
2026-05-05 18:16 30.97549 31.22591 25125 ft 484 kts 177°
2026-05-05 18:17 30.94202 31.23210 24191 ft 488 kts 177°
2026-05-05 18:17 30.90878 31.23827 23097 ft 477 kts 177°
2026-05-05 18:17 30.87616 31.24435 21467 ft 473 kts 177°
2026-05-05 18:17 30.84387 31.25035 20178 ft 464 kts 176°
2026-05-05 18:18 30.81258 31.25620 19330 ft 448 kts 176°
2026-05-05 18:18 30.78191 31.26189 18695 ft 445 kts 176°
2026-05-05 18:18 30.75143 31.26749 18007 ft 442 kts 176°
2026-05-05 18:18 30.72121 31.27303 17277 ft 438 kts 176°
2026-05-05 18:19 30.69129 31.27852 16569 ft 433 kts 175°
2026-05-05 18:19 30.66173 31.28396 15925 ft 427 kts 175°
2026-05-05 18:19 30.63256 31.28933 15287 ft 423 kts 175°
2026-05-05 18:19 30.60357 31.29466 14663 ft 419 kts 175°
2026-05-05 18:20 30.57526 31.29986 14061 ft 416 kts 175°
2026-05-05 18:20 30.54645 31.30516 13403 ft 412 kts 174°
2026-05-05 18:20 30.51874 31.31025 12732 ft 405 kts 174°
2026-05-05 18:20 30.49163 31.31528 12085 ft 382 kts 174°
2026-05-05 18:21 30.46608 31.32004 11439 ft 362 kts 174°
2026-05-05 18:21 30.44192 31.32452 10926 ft 341 kts 174°
2026-05-05 18:21 30.41915 31.32869 10481 ft 322 kts 174°
2026-05-05 18:21 30.39757 31.33264 10022 ft 307 kts 174°
2026-05-05 18:22 30.37683 31.33641 9551 ft 297 kts 174°
2026-05-05 18:22 30.35653 31.34010 9149 ft 294 kts 173°
2026-05-05 18:22 30.33634 31.34378 8725 ft 292 kts 173°
2026-05-05 18:22 30.31635 31.34744 8335 ft 290 kts 173°
2026-05-05 18:23 30.29644 31.35108 7927 ft 288 kts 173°
2026-05-05 18:23 30.27675 31.35466 7518 ft 285 kts 173°
2026-05-05 18:23 30.25723 31.35825 7129 ft 283 kts 172°
2026-05-05 18:23 30.23786 31.36177 6739 ft 280 kts 172°
2026-05-05 18:24 30.21875 31.36526 6348 ft 277 kts 171°
2026-05-05 18:24 30.19978 31.36875 5926 ft 275 kts 171°
2026-05-05 18:24 30.18083 31.37223 5519 ft 276 kts 172°
2026-05-05 18:24 30.16184 31.37571 5118 ft 277 kts 172°
2026-05-05 18:25 30.14301 31.37916 4730 ft 280 kts 172°
2026-05-05 18:25 30.13001 31.38153 4492 ft 281 kts 172°
2026-05-05 18:25 30.10447 31.38415 3972 ft 277 kts 181°
2026-05-05 18:25 30.08528 31.38219 3498 ft 277 kts 192°
2026-05-05 18:26 30.06666 31.37649 3003 ft 277 kts 202°
2026-05-05 18:26 30.04883 31.36843 2624 ft 273 kts 205°
2026-05-05 18:26 30.03133 31.36008 2494 ft 271 kts 205°
2026-05-05 18:26 30.01385 31.35178 2493 ft 272 kts 206°
2026-05-05 18:27 29.99638 31.34352 2495 ft 272 kts 205°
2026-05-05 18:27 29.97946 31.33396 2495 ft 269 kts 216°
2026-05-05 18:27 29.96593 31.31949 2495 ft 264 kts 238°
2026-05-05 18:27 29.95894 31.30051 2507 ft 255 kts 265°
2026-05-05 18:28 29.97217 31.26687 2497 ft 242 kts 332°
2026-05-05 18:28 29.98854 31.26379 2498 ft 244 kts
2026-05-05 18:28 30.00339 31.27256 2495 ft 238 kts 39°
2026-05-05 18:29 30.01485 31.28552 2482 ft 222 kts 42°
2026-05-05 18:29 30.02501 31.29775 2483 ft 206 kts 41°
2026-05-05 18:29 30.03454 31.30951 2492 ft 190 kts 43°
2026-05-05 18:29 30.04278 31.32051 2497 ft 173 kts 45°
2026-05-05 18:30 30.04934 31.33131 2486 ft 155 kts 43°
2026-05-05 18:30 30.05624 31.33973 2481 ft 139 kts 43°
2026-05-05 18:30 30.06233 31.34824 2345 ft 140 kts 45°
2026-05-05 18:30 30.06852 31.35719 1968 ft 145 kts 43°
2026-05-05 18:31 30.07523 31.36606 1546 ft 148 kts 40°
2026-05-05 18:31 30.08238 31.37492 1132 ft 153 kts 40°
2026-05-05 18:31 30.08912 31.38433 809 ft 150 kts 46°
2026-05-05 18:31 30.09595 31.39327 577 ft 145 kts 42°
2026-05-05 18:32 30.10234 31.40185 395 ft 137 kts 43°
2026-05-05 18:32 30.10762 31.40871 391 ft 79 kts 48°
2026-05-05 18:32 30.11068 31.41274 392 ft 62 kts 49°
2026-05-05 18:32 30.11268 31.41517 391 ft 38 kts 33°
2026-05-05 18:33 30.11484 31.41626 382 ft 22 kts 13°
2026-05-05 18:33 30.11561 31.41566 375 ft 14 kts 268°
2026-05-05 18:33 30.11500 31.41463 375 ft 17 kts 230°
2026-05-05 18:33 30.11413 31.41356 376 ft 19 kts 227°
2026-05-05 18:34 30.11318 31.41232 377 ft 22 kts 233°
2026-05-05 18:34 30.11218 31.41092 377 ft 24 kts 230°
2026-05-05 18:34 30.11124 31.40963 377 ft 18 kts 227°
2026-05-05 18:34 30.11065 31.40875 376 ft 13 kts 250°
2026-05-05 18:35 30.11087 31.40766 373 ft 8 kts 267°
2026-05-05 18:35 30.11052 31.40708 375 ft 10 kts 228°
2026-05-05 18:35 30.10998 31.40637 378 ft 13 kts 230°
2026-05-05 18:35 30.10936 31.40549 378 ft 11 kts 231°
2026-05-05 18:36 30.10920 31.40463 368 ft 13 kts 280°
2026-05-05 18:36 30.10954 31.40340 370 ft 14 kts 287°
2026-05-05 18:36 30.10970 31.40284 367 ft 0 kts 296°
2026-05-05 18:36 30.10972 31.40283 367 ft 1 kts 309°
2026-05-05 18:37 30.10983 31.40285 368 ft 1 kts 14°
2026-05-05 18:37 30.10998 31.40293 365 ft 5 kts 21°
2026-05-05 18:37 30.11013 31.40299 366 ft 1 kts 20°
2026-05-05 18:37 30.11026 31.40304 364 ft 1 kts 20°
2026-05-05 18:38 30.11042 31.40310 365 ft 2 kts 15°
2026-05-05 18:38 30.11057 31.40315 365 ft 3 kts 16°
2026-05-05 18:38 30.11066 31.40318 364 ft 0 kts 17°